"Pseudo-MPEC" for P10TXfk

Created 2019 Nov 13 0:07:09 UT using Find_Orb

Click here for an explanation of pseudo-MPECs

 
 Astrometry: 
     P10TXfk  C2019 11 02H3TEdt8Rg2wvv+'mB_q]4,Astrometry(=HY2L4m[4W/Ldv_aL5FF51
     P10TXfk  C2019 11 02T\BmT%(:ay:$!Mj(%u[redacted;9-j?K@$fmnf!P.n^clickhPxF51
     P10TXfk  C2019 11 02OO9SQfD3@#bhere!oE[fortf:`3bexplanationL485\w#3O,bh`F51

Station data:
(F51) Pan-STARRS 1, Haleakala  (N20.707235 W156.255910)  US/Hawaii.
   Observers N. Primak, A. Schultz, S. Watters, J. Thiel, T. Goggia. Measurer
   PS1 Science Consortium. 1.8-m Ritchey-Chrétien + CCD.

Orbital elements:  P10TXfk
   Perihelion 2020 Jan 6.801075 +/- 53 TT = 19:13:32 (JD 2458855.301075)
Epoch 2019 Nov  2.0 TT = JDT 2458789.5   Earth MOID: 0.4978   AutoNEOCP
M 343.58569018 +/- 17               (J2000 ecliptic)
n   0.24945351 +/- 0.24             Peri.   72.01932 +/- 80
a   2.49924957 +/- 1.6              Node    14.24534 +/- 52
e   0.4336663 +/- 0.248             Incl.   13.12771 +/- 8
P   3.95                   H 21.9   G  0.15   U 11.8  SR
q 1.41540912 +/- 0.451    Q 3.58309001 +/- 64.6
From 3 observations 2019 Nov. 2 (32.7 min); mean residual 0".02
Residuals in arcseconds: 
191102 F51  .02-  .01-    191102 F51  .04+  .02+    191102 F51  .02-  .01-    

Ephemerides (geocentric):
Date (UTC) HH   RA              Dec         delta   r     elong  mag " sig PA
---- -- -- --  -------------   -----------  ------ ------ -----  --- ---- ---
2019 11 13 00  02 24 46.094   +36 58 36.95  .54156 1.5063 158.3 22.3  39d 155
2019 11 13 01  02 24 42.642   +36 59 20.20  .54149 1.5062 158.3 22.3  39d 155
2019 11 13 02  02 24 39.189   +37 00 03.42  .54142 1.5060 158.3 22.3  39d 155
2019 11 13 03  02 24 35.737   +37 00 46.59  .54135 1.5059 158.2 22.3  39d 155
2019 11 13 04  02 24 32.286   +37 01 29.73  .54128 1.5058 158.2 22.3  39d 155
2019 11 13 05  02 24 28.834   +37 02 12.82  .54121 1.5056 158.2 22.3  39d 155
2019 11 13 06  02 24 25.383   +37 02 55.87  .54114 1.5055 158.2 22.3  39d 155
2019 11 13 07  02 24 21.932   +37 03 38.88  .54107 1.5054 158.1 22.3  39d 155
2019 11 13 08  02 24 18.482   +37 04 21.85  .54101 1.5052 158.1 22.3  40d 155
2019 11 13 09  02 24 15.031   +37 05 04.78  .54094 1.5051 158.1 22.3  40d 155
2019 11 13 10  02 24 11.582   +37 05 47.67  .54087 1.5050 158.1 22.3  40d 155
2019 11 13 11  02 24 08.132   +37 06 30.52  .54081 1.5049 158.1 22.3  40d 155
2019 11 13 12  02 24 04.683   +37 07 13.33  .54074 1.5047 158.0 22.3  40d 155
2019 11 13 13  02 24 01.235   +37 07 56.10  .54067 1.5046 158.0 22.3  40d 155
2019 11 13 14  02 23 57.787   +37 08 38.83  .54061 1.5045 158.0 22.3  40d 155
2019 11 13 15  02 23 54.339   +37 09 21.51  .54054 1.5043 158.0 22.3  40d 155
2019 11 13 16  02 23 50.892   +37 10 04.16  .54048 1.5042 157.9 22.3  40d 155
2019 11 13 17  02 23 47.445   +37 10 46.76  .54041 1.5041 157.9 22.3  40d 155
2019 11 13 18  02 23 43.999   +37 11 29.32  .54035 1.5039 157.9 22.3  40d 155
2019 11 13 19  02 23 40.553   +37 12 11.85  .54028 1.5038 157.9 22.3  40d 155
2019 11 13 20  02 23 37.108   +37 12 54.33  .54022 1.5037 157.8 22.3  40d 155
2019 11 13 21  02 23 33.663   +37 13 36.77  .54016 1.5036 157.8 22.3  40d 155
2019 11 13 22  02 23 30.219   +37 14 19.16  .54009 1.5034 157.8 22.3  40d 155
2019 11 13 23  02 23 26.776   +37 15 01.52  .54003 1.5033 157.8 22.3  40d 155
2019 11 14 00  02 23 23.333   +37 15 43.84  .53997 1.5032 157.7 22.3  40d 155
2019 11 14 01  02 23 19.891   +37 16 26.11  .53990 1.5030 157.7 22.3  40d 155
2019 11 14 02  02 23 16.449   +37 17 08.34  .53984 1.5029 157.7 22.3  40d 155
2019 11 14 03  02 23 13.008   +37 17 50.54  .53978 1.5028 157.7 22.3  41d 155
2019 11 14 04  02 23 09.567   +37 18 32.69  .53972 1.5027 157.6 22.3  41d 155
2019 11 14 05  02 23 06.128   +37 19 14.79  .53966 1.5025 157.6 22.3  41d 155
2019 11 14 06  02 23 02.689   +37 19 56.86  .53960 1.5024 157.6 22.3  41d 155
2019 11 14 07  02 22 59.250   +37 20 38.89  .53954 1.5023 157.6 22.3  41d 155
2019 11 14 08  02 22 55.813   +37 21 20.87  .53948 1.5021 157.5 22.3  41d 155
2019 11 14 09  02 22 52.376   +37 22 02.81  .53942 1.5020 157.5 22.3  41d 155
2019 11 14 10  02 22 48.940   +37 22 44.71  .53936 1.5019 157.5 22.3  41d 155
2019 11 14 11  02 22 45.504   +37 23 26.57  .53930 1.5018 157.5 22.3  41d 155
2019 11 14 12  02 22 42.070   +37 24 08.38  .53924 1.5016 157.4 22.3  41d 155
2019 11 14 13  02 22 38.636   +37 24 50.16  .53918 1.5015 157.4 22.3  41d 155
2019 11 14 14  02 22 35.203   +37 25 31.89  .53912 1.5014 157.4 22.3  41d 155
2019 11 14 15  02 22 31.770   +37 26 13.58  .53906 1.5013 157.3 22.3  41d 154
2019 11 14 16  02 22 28.339   +37 26 55.23  .53901 1.5011 157.3 22.3  41d 154
2019 11 14 17  02 22 24.909   +37 27 36.84  .53895 1.5010 157.3 22.3  41d 154
2019 11 14 18  02 22 21.479   +37 28 18.40  .53889 1.5009 157.3 22.3  41d 154
2019 11 14 19  02 22 18.050   +37 28 59.92  .53883 1.5007 157.2 22.3  41d 154
2019 11 14 20  02 22 14.622   +37 29 41.40  .53878 1.5006 157.2 22.3  41d 154
2019 11 14 21  02 22 11.195   +37 30 22.84  .53872 1.5005 157.2 22.3  41d 154
2019 11 14 22  02 22 07.769   +37 31 04.23  .53866 1.5004 157.2 22.3  41d 154
2019 11 14 23  02 22 04.344   +37 31 45.59  .53861 1.5002 157.1 22.3  41d 154